Moses Lake, WA
on Monday, January 7, 2013

Monday
Previous Day Next Day
Daily Summary
 ActualAverageRecord
Temperature
Mean Temperature °F 29°F  
Max Temperature 32°F 35°F 55°F (2002)
Min Temperature 22°F 22°F -10°F (1982)
Degree Days
Heating Degree Days 38 36  
Month to date heating degree days 268 258  
Since 1 July heating degree days 2476 2845  
Cooling Degree Days 0 0  
Month to date cooling degree days 0 0  
Year to date cooling degree days 0 0  
Moisture
Dew Point 25°F   
Average Humidity 93    
Maximum Humidity 100    
Minimum Humidity 85    
Precipitation
Precipitation 0.09 in 0.05 in 0.28 in (2006)
Month to date precipitation 0.11 0.35  
Year to date precipitation 0.11 0.35  
Wind
Wind Speed 3 mph   
Max Wind Speed 10 mph   
Max Gust Speed 12 mph   
Visibility 2 miles   
Events Fog , Snow   

Key: T is trace of precipitation, MM is missing value
Source: NWS Daily Summary
Time(PST)TemperatureDew PointHumidity Pressure Visibility Wind DirectionWind SpeedGust SpeedPrecipitationEvents Conditions
12:28 AM 28.4°F 24.8°F 86% 30.06 in 3.0 miles NNW 3.5 mph - N/A Snow Light Snow
12:41 AM 28.4°F 24.8°F 86% 30.05 in 3.0 miles North 3.5 mph - 0.00 in Snow Light Snow
12:52 AM 28.0°F 25.0°F 88% 30.09 in 3.0 miles North 3.5 mph - 0.00 in Snow Light Snow
1:11 AM 28.4°F 24.8°F 86% 30.04 in 4.0 miles North 4.6 mph - 0.00 in Snow Light Snow
1:23 AM 28.4°F 24.8°F 86% 30.04 in 3.0 miles North 4.6 mph - 0.00 in Snow Light Snow
1:39 AM 28.4°F 24.8°F 86% 30.04 in 2.5 miles North 4.6 mph - 0.00 in Snow Light Snow
1:46 AM 28.4°F 24.8°F 86% 30.04 in 3.0 miles North 3.5 mph - 0.00 in Snow Light Snow
1:47 AM 28.0°F 25.0°F 88% 30.08 in 4.0 miles North 3.5 mph - 0.00 in Snow Light Snow
2:52 AM 28.0°F 25.0°F 88% 30.08 in 4.0 miles NNW 4.6 mph - 0.00 in Snow Light Snow
3:41 AM 28.4°F 26.6°F 93% 30.02 in 2.0 miles Calm Calm - 0.00 in Snow Light Snow
3:52 AM 28.0°F 25.0°F 88% 30.05 in 2.0 miles Calm Calm - 0.00 in Snow Light Snow
4:24 AM 28.4°F 26.6°F 93% 29.99 in 3.0 miles Calm Calm - N/A Snow Light Snow
4:36 AM 28.4°F 24.8°F 86% 29.99 in 2.5 miles Calm Calm - 0.01 in Snow Light Snow
4:52 AM 28.0°F 26.1°F 92% 30.02 in 2.5 miles Calm Calm - 0.01 in Snow Light Snow
5:02 AM 28.4°F 26.6°F 93% 29.98 in 2.5 miles Calm Calm - 0.00 in Snow Light Snow
5:09 AM 28.4°F 26.6°F 93% 29.97 in 2.5 miles Calm Calm - 0.00 in Snow Light Snow
5:32 AM 28.4°F 24.8°F 86% 29.97 in 3.0 miles Calm Calm - 0.00 in Snow Light Snow
5:52 AM 28.0°F 25.0°F 88% 30.00 in 3.0 miles Calm Calm - 0.00 in Snow Light Snow
6:00 AM 28.4°F 24.8°F 86% 29.95 in 2.5 miles Calm Calm - N/A Snow Light Snow
6:28 AM 28.4°F 24.8°F 86% 29.94 in 2.0 miles Calm Calm - N/A Snow Light Snow
6:39 AM 28.4°F 24.8°F 86% 29.94 in 1.5 miles Calm Calm - 0.01 in Snow Light Snow
6:52 AM 28.0°F 25.0°F 88% 29.98 in 1.8 miles Calm Calm - 0.02 in Snow Light Snow
7:08 AM 28.4°F 24.8°F 86% 29.93 in 2.0 miles Calm Calm - 0.00 in Snow Light Snow
7:20 AM 28.4°F 24.8°F 86% 29.94 in 2.0 miles NW 3.5 mph - 0.00 in Snow Light Snow
7:32 AM 28.4°F 24.8°F 86% 29.94 in 1.5 miles WNW 3.5 mph - 0.01 in Snow Light Snow
7:52 AM 28.0°F 25.0°F 88% 29.98 in 1.0 miles Calm Calm - 0.03 in Snow Light Snow
8:07 AM 28.4°F 24.8°F 86% 29.92 in 0.5 miles Calm Calm - 0.01 in Fog , Snow Snow
8:52 AM 28.0°F 25.0°F 88% 29.96 in 3.0 miles Calm Calm - 0.03 in Snow Light Snow
9:30 AM 28.4°F 26.6°F 93% 29.91 in 5.0 miles Calm Calm - N/A   Overcast
9:52 AM 28.9°F 25.0°F 85% 29.95 in 6.0 miles WNW 3.5 mph - 0.00 in   Overcast
10:21 AM 28.4°F 24.8°F 86% 29.90 in 6.0 miles Calm Calm - N/A   Overcast
10:29 AM 30.2°F 24.8°F 80% 29.90 in 7.0 miles Calm Calm - N/A   Overcast
10:52 AM 30.0°F 26.1°F 85% 29.94 in 7.0 miles Calm Calm - N/A   Overcast
11:52 AM 30.0°F 26.1°F 85% 29.92 in 7.0 miles Calm Calm - N/A   Overcast
12:52 PM 30.0°F 27.0°F 88% 29.89 in 5.0 miles SSE 4.6 mph - N/A   Overcast
1:03 PM 30.2°F 26.6°F 86% 29.85 in 4.0 miles South 3.5 mph - N/A   Overcast
1:52 PM 30.9°F 28.0°F 89% 29.90 in 3.0 miles Calm Calm - N/A   Overcast
2:03 PM 30.2°F 28.4°F 93% 29.86 in 2.5 miles SE 3.5 mph - N/A   Overcast
2:29 PM 30.2°F 28.4°F 93% 29.86 in 0.8 miles Variable 4.6 mph - N/A   Overcast
2:52 PM 30.9°F 28.9°F 92% 29.90 in 0.2 miles SSE 5.8 mph - N/A Fog Light Freezing Fog
3:52 PM 30.9°F 30.0°F 96% 29.91 in 0.2 miles ESE 3.5 mph - N/A Fog Light Freezing Fog
4:52 PM 32.0°F 30.0°F 92% 29.91 in 0.2 miles Calm Calm - N/A Fog Fog
5:21 PM 30.2°F 28.4°F 93% 29.88 in 0.5 miles North 4.6 mph - N/A Fog Light Freezing Fog
5:30 PM 28.4°F 26.6°F 93% 29.88 in 0.5 miles NNE 8.1 mph - N/A Fog Light Freezing Fog
5:43 PM 28.4°F 26.6°F 93% 29.89 in 0.2 miles North 6.9 mph - N/A Fog Light Freezing Fog
5:52 PM 28.9°F 27.0°F 92% 29.94 in 0.2 miles North 6.9 mph - N/A Fog Light Freezing Fog
6:52 PM 28.9°F 28.0°F 96% 29.94 in 0.2 miles NNE 3.5 mph - N/A Fog Light Freezing Fog
7:52 PM 30.0°F 27.0°F 88% 29.98 in 0.2 miles North 8.1 mph - N/A Fog Light Freezing Fog
8:52 PM 28.9°F 27.0°F 92% 29.99 in 0.2 miles NNE 6.9 mph - N/A Fog Light Freezing Fog
9:20 PM 28.4°F 26.6°F 93% 29.95 in 0.5 miles NNW 9.2 mph - N/A Fog Light Freezing Fog
9:39 PM 30.2°F 26.6°F 86% 29.97 in 0.2 miles Variable 3.5 mph - N/A Fog Light Freezing Fog
9:52 PM 30.0°F 27.0°F 88% 30.02 in 0.2 miles North 5.8 mph - N/A Fog Light Freezing Fog
10:49 PM 24.8°F 21.2°F 86% 30.00 in 0.5 miles North 5.8 mph - N/A Fog Light Freezing Fog
10:52 PM 23.0°F 21.0°F 92% 30.05 in 0.5 miles North 4.6 mph - N/A Fog Light Freezing Fog
11:17 PM 23.0°F 19.4°F 86% 30.01 in 1.0 miles Calm Calm - N/A   Mist
11:27 PM 23.0°F 19.4°F 86% 30.02 in 0.8 miles NNW 5.8 mph - N/A   Mist
11:31 PM 23.0°F 19.4°F 86% 30.02 in 1.2 miles Calm Calm - N/A   Scattered Clouds
11:38 PM 21.2°F 19.4°F 93% 30.03 in 1.5 miles North 4.6 mph - N/A   Mostly Cloudy
11:44 PM 21.2°F 19.4°F 93% 30.03 in 2.0 miles Calm Calm - N/A   Scattered Clouds
11:48 PM 21.2°F 19.4°F 93% 30.03 in 4.0 miles Calm Calm - N/A   Mostly Cloudy
11:52 PM 21.9°F 19.0°F 89% 30.08 in 4.0 miles Calm Calm - N/A   Mostly Cloudy
Moon Phase
Jan. 07 Jan. 11 Jan. 18 Jan. 26 Feb. 03
Sunrise:07:42 AM (PST) Moon Rise:03:08 AM (PST)1/7
Sunset:04:24 PM (PST) Moon Set:12:42 PM (PST)1/7

Copyright © 2014 The Weather Underground, Inc.